VOI243 MMMY-MMMX

Flight info

Callsign VOI243
Flight time 1h 2m
Altitude 35000
Route KERGA1A KERGA UT132 DARAN DARAN2A
Aircraft A320/M-SDE3FGHIRWY/LB1

Departure

Time 2026-04-16 02:28
Airport Monterrey International Airport (MMMY)

Arrival

Time 2026-04-16 03:30
Airport Mexico City Benito Juárez International Airport (MMMX)
Time Latitude Longitude Altitude Speed Heading
2026-04-16 01:55 25.77822 -100.11237 1292 ft 0 kts 210°
2026-04-16 02:13 25.77823 -100.11236 1292 ft 1 kts 210°
2026-04-16 02:13 25.77836 -100.11228 1292 ft 3 kts 213°
2026-04-16 02:13 25.77853 -100.11215 1292 ft 3 kts 217°
2026-04-16 02:14 25.77869 -100.11201 1292 ft 3 kts 224°
2026-04-16 02:14 25.77882 -100.11185 1292 ft 3 kts 239°
2026-04-16 02:14 25.77889 -100.11166 1292 ft 3 kts 283°
2026-04-16 02:14 25.77886 -100.11156 1292 ft 1 kts 301°
2026-04-16 02:15 25.77885 -100.11155 1292 ft 0 kts 301°
2026-04-16 02:16 25.77885 -100.11156 1292 ft 1 kts 301°
2026-04-16 02:16 25.77902 -100.11186 1292 ft 8 kts 302°
2026-04-16 02:16 25.77939 -100.11253 1292 ft 11 kts 301°
2026-04-16 02:17 25.77980 -100.11326 1292 ft 11 kts 302°
2026-04-16 02:17 25.78021 -100.11401 1292 ft 12 kts 301°
2026-04-16 02:17 25.78063 -100.11478 1292 ft 12 kts 301°
2026-04-16 02:17 25.78106 -100.11557 1292 ft 12 kts 302°
2026-04-16 02:18 25.78147 -100.11631 1292 ft 11 kts 301°
2026-04-16 02:18 25.78185 -100.11701 1292 ft 11 kts 301°
2026-04-16 02:18 25.78223 -100.11768 1292 ft 9 kts 303°
2026-04-16 02:18 25.78269 -100.11807 1292 ft 8 kts 17°
2026-04-16 02:19 25.78313 -100.11779 1292 ft 0 kts 30°
2026-04-16 02:20 25.78317 -100.11777 1292 ft 2 kts 30°
2026-04-16 02:21 25.78324 -100.11772 1292 ft 0 kts 30°
2026-04-16 02:22 25.78335 -100.11765 1292 ft 3 kts 30°
2026-04-16 02:23 25.78359 -100.11750 1292 ft 5 kts 31°
2026-04-16 02:23 25.78396 -100.11724 1292 ft 8 kts 37°
2026-04-16 02:23 25.78403 -100.11697 1292 ft 1 kts 114°
2026-04-16 02:23 25.78402 -100.11695 1292 ft 0 kts 121°
2026-04-16 02:27 25.78398 -100.11687 1292 ft 4 kts 120°
2026-04-16 02:27 25.78303 -100.11510 1292 ft 64 kts 122°
2026-04-16 02:27 25.77932 -100.10842 1293 ft 137 kts 118°
2026-04-16 02:28 25.77351 -100.09778 1467 ft 175 kts 121°
2026-04-16 02:28 25.76702 -100.08616 2247 ft 176 kts 121°
2026-04-16 02:28 25.76039 -100.07435 3004 ft 185 kts 123°
2026-04-16 02:28 25.75318 -100.06231 3722 ft 195 kts 124°
2026-04-16 02:29 25.74599 -100.04940 4249 ft 201 kts 120°
2026-04-16 02:29 25.73886 -100.03552 4588 ft 215 kts 120°
2026-04-16 02:29 25.73098 -100.02073 4938 ft 230 kts 121°
2026-04-16 02:29 25.72231 -100.00497 5270 ft 249 kts 121°
2026-04-16 02:30 25.71287 -99.98822 5738 ft 263 kts 126°
2026-04-16 02:30 25.69919 -99.97407 6206 ft 278 kts 151°
2026-04-16 02:30 25.68046 -99.96849 6845 ft 284 kts 179°
2026-04-16 02:30 25.66053 -99.96956 7579 ft 287 kts 186°
2026-04-16 02:31 25.64053 -99.97164 8295 ft 291 kts 186°
2026-04-16 02:31 25.62051 -99.97326 9114 ft 289 kts 185°
2026-04-16 02:31 25.60051 -99.97417 10137 ft 280 kts 185°
2026-04-16 02:31 25.58137 -99.97478 10968 ft 278 kts 185°
2026-04-16 02:32 25.56191 -99.97554 11557 ft 285 kts 186°
2026-04-16 02:32 25.54145 -99.97658 11850 ft 303 kts 186°
2026-04-16 02:32 25.51976 -99.97775 12059 ft 321 kts 186°
2026-04-16 02:32 25.49675 -99.97892 12261 ft 339 kts 186°
2026-04-16 02:33 25.47256 -99.98006 12457 ft 356 kts 186°
2026-04-16 02:33 25.44726 -99.98120 12647 ft 371 kts 185°
2026-04-16 02:33 25.42133 -99.98237 12833 ft 385 kts 185°
2026-04-16 02:33 25.39375 -99.98364 13012 ft 398 kts 185°
2026-04-16 02:34 25.36594 -99.98494 13174 ft 410 kts 185°
2026-04-16 02:34 25.33720 -99.98626 13485 ft 417 kts 185°
2026-04-16 02:34 25.30809 -99.98759 13924 ft 419 kts 185°
2026-04-16 02:34 25.27882 -99.98898 14354 ft 422 kts 185°
2026-04-16 02:35 25.24932 -99.99039 14775 ft 425 kts 185°
2026-04-16 02:35 25.21967 -99.99177 15188 ft 427 kts 185°
2026-04-16 02:35 25.18984 -99.99315 15589 ft 430 kts 185°
2026-04-16 02:35 25.15988 -99.99456 15982 ft 432 kts 185°
2026-04-16 02:36 25.12972 -99.99600 16365 ft 435 kts 185°
2026-04-16 02:36 25.09944 -99.99743 16744 ft 437 kts 185°
2026-04-16 02:36 25.06893 -99.99886 17116 ft 440 kts 185°
2026-04-16 02:36 25.03828 -100.00029 17475 ft 442 kts 185°
2026-04-16 02:37 25.00742 -100.00173 17826 ft 444 kts 185°
2026-04-16 02:37 24.97690 -100.00315 18172 ft 446 kts 185°
2026-04-16 02:37 24.94570 -100.00434 18512 ft 450 kts 183°
2026-04-16 02:37 24.91436 -100.00332 18846 ft 453 kts 180°
2026-04-16 02:38 24.88275 -100.00154 19176 ft 455 kts 179°
2026-04-16 02:38 24.85098 -99.99938 19500 ft 458 kts 179°
2026-04-16 02:38 24.81904 -99.99717 19813 ft 460 kts 179°
2026-04-16 02:38 24.78703 -99.99520 20127 ft 462 kts 180°
2026-04-16 02:39 24.75484 -99.99349 20430 ft 464 kts 180°
2026-04-16 02:39 24.72252 -99.99186 20728 ft 466 kts 180°
2026-04-16 02:39 24.69002 -99.99012 21017 ft 468 kts 180°
2026-04-16 02:39 24.65784 -99.98826 21291 ft 470 kts 180°
2026-04-16 02:40 24.62465 -99.98631 21577 ft 472 kts 180°
2026-04-16 02:40 24.59226 -99.98439 21851 ft 474 kts 180°
2026-04-16 02:40 24.55882 -99.98244 22127 ft 476 kts 180°
2026-04-16 02:40 24.52608 -99.98057 22390 ft 477 kts 180°
2026-04-16 02:41 24.49287 -99.97870 22650 ft 479 kts 180°
2026-04-16 02:41 24.45939 -99.97683 22903 ft 481 kts 180°
2026-04-16 02:41 24.42585 -99.97495 23149 ft 483 kts 180°
2026-04-16 02:41 24.39223 -99.97303 23388 ft 485 kts 180°
2026-04-16 02:42 24.35841 -99.97108 23616 ft 486 kts 180°
2026-04-16 02:42 24.32462 -99.96916 23836 ft 488 kts 180°
2026-04-16 02:42 24.29065 -99.96725 24048 ft 489 kts 180°
2026-04-16 02:42 24.25656 -99.96533 24254 ft 491 kts 180°
2026-04-16 02:43 24.22236 -99.96339 24454 ft 492 kts 180°
2026-04-16 02:43 24.18815 -99.96146 24646 ft 494 kts 180°
2026-04-16 02:43 24.15375 -99.95952 24851 ft 495 kts 180°
2026-04-16 02:43 24.11931 -99.95755 25111 ft 494 kts 180°
2026-04-16 02:44 24.08546 -99.95563 25360 ft 494 kts 180°
2026-04-16 02:44 24.05115 -99.95369 25622 ft 493 kts 180°
2026-04-16 02:44 24.01689 -99.95177 25869 ft 492 kts 180°
2026-04-16 02:44 23.98270 -99.94984 26124 ft 492 kts 180°
2026-04-16 02:45 23.94852 -99.94791 26370 ft 492 kts 180°
2026-04-16 02:45 23.91436 -99.94600 26627 ft 491 kts 180°
2026-04-16 02:45 23.88022 -99.94409 26878 ft 491 kts 180°
2026-04-16 02:45 23.84610 -99.94214 27144 ft 490 kts 180°
2026-04-16 02:46 23.81205 -99.94019 27402 ft 489 kts 180°
2026-04-16 02:46 23.77804 -99.93829 27671 ft 489 kts 180°
2026-04-16 02:46 23.74399 -99.93638 27929 ft 488 kts 180°
2026-04-16 02:46 23.71048 -99.93451 28194 ft 488 kts 180°
2026-04-16 02:47 23.67651 -99.93261 28454 ft 487 kts 180°
2026-04-16 02:47 23.64260 -99.93068 28723 ft 487 kts 180°
2026-04-16 02:47 23.60879 -99.92877 28995 ft 486 kts 180°
2026-04-16 02:47 23.57504 -99.92690 29270 ft 486 kts 180°
2026-04-16 02:48 23.54130 -99.92503 29531 ft 485 kts 180°
2026-04-16 02:48 23.50758 -99.92314 29794 ft 485 kts 180°
2026-04-16 02:48 23.47389 -99.92119 30060 ft 484 kts 180°
2026-04-16 02:48 23.44027 -99.91929 30323 ft 484 kts 180°
2026-04-16 02:49 23.40658 -99.91747 30580 ft 483 kts 180°
2026-04-16 02:49 23.37347 -99.91569 30823 ft 483 kts 180°
2026-04-16 02:49 23.33997 -99.91385 31062 ft 482 kts 180°
2026-04-16 02:49 23.30636 -99.91193 31304 ft 482 kts 180°
2026-04-16 02:50 23.27288 -99.90999 31556 ft 481 kts 180°
2026-04-16 02:50 23.23947 -99.90809 31814 ft 481 kts 180°
2026-04-16 02:50 23.20608 -99.90624 32073 ft 480 kts 180°
2026-04-16 02:50 23.17270 -99.90446 32331 ft 479 kts 180°
2026-04-16 02:51 23.13930 -99.90264 32580 ft 479 kts 180°
2026-04-16 02:51 23.10600 -99.90076 32834 ft 478 kts 180°
2026-04-16 02:51 23.07284 -99.89887 33083 ft 478 kts 180°
2026-04-16 02:51 23.03996 -99.89704 33319 ft 477 kts 180°
2026-04-16 02:52 23.00682 -99.89517 33550 ft 477 kts 180°
2026-04-16 02:52 22.97366 -99.89334 33780 ft 476 kts 180°
2026-04-16 02:52 22.94049 -99.89151 34002 ft 476 kts 180°
2026-04-16 02:52 22.90749 -99.88970 34215 ft 475 kts 180°
2026-04-16 02:53 22.87442 -99.88788 34411 ft 475 kts 180°
2026-04-16 02:53 22.84142 -99.88608 34621 ft 475 kts 180°
2026-04-16 02:53 22.80846 -99.88424 34831 ft 474 kts 180°
2026-04-16 02:53 22.77546 -99.88237 35004 ft 474 kts 180°
2026-04-16 02:54 22.70963 -99.87869 35008 ft 473 kts 180°
2026-04-16 02:54 22.64382 -99.87512 35007 ft 473 kts 180°
2026-04-16 02:55 22.57799 -99.87148 35007 ft 473 kts 180°
2026-04-16 02:55 22.51218 -99.86782 35007 ft 473 kts 180°
2026-04-16 02:56 22.44631 -99.86419 35035 ft 473 kts 180°
2026-04-16 02:56 22.38104 -99.86060 35039 ft 472 kts 180°
2026-04-16 02:57 22.31532 -99.85696 35028 ft 472 kts 180°
2026-04-16 02:57 22.24962 -99.85336 35025 ft 472 kts 180°
2026-04-16 02:58 22.18391 -99.84974 35010 ft 472 kts 180°
2026-04-16 02:58 22.11822 -99.84615 35001 ft 472 kts 180°
2026-04-16 02:59 22.05264 -99.84256 34992 ft 472 kts 180°
2026-04-16 02:59 21.98739 -99.83900 34977 ft 472 kts 180°
2026-04-16 03:00 21.92181 -99.83539 34970 ft 472 kts 180°
2026-04-16 03:00 21.85615 -99.83181 34962 ft 472 kts 180°
2026-04-16 03:01 21.79051 -99.82820 34963 ft 472 kts 180°
2026-04-16 03:01 21.72489 -99.82459 34964 ft 472 kts 180°
2026-04-16 03:02 21.65933 -99.82109 34966 ft 472 kts 180°
2026-04-16 03:02 21.59363 -99.81751 34970 ft 472 kts 180°
2026-04-16 03:03 21.52795 -99.81392 34970 ft 472 kts 180°
2026-04-16 03:03 21.46277 -99.81035 34965 ft 472 kts 180°
2026-04-16 03:04 21.39709 -99.80681 34962 ft 472 kts 180°
2026-04-16 03:04 21.33140 -99.80326 34960 ft 472 kts 180°
2026-04-16 03:05 21.26587 -99.79969 34959 ft 472 kts 180°
2026-04-16 03:05 21.20014 -99.79610 34960 ft 472 kts 180°
2026-04-16 03:06 21.13444 -99.79259 34961 ft 472 kts 180°
2026-04-16 03:07 21.03608 -99.78734 34967 ft 472 kts 181°
2026-04-16 03:07 20.97302 -99.78512 34965 ft 471 kts 181°
2026-04-16 03:08 20.91195 -99.78312 34985 ft 472 kts 181°
2026-04-16 03:08 20.84668 -99.78081 34998 ft 472 kts 181°
2026-04-16 03:09 20.78109 -99.77863 34983 ft 471 kts 181°
2026-04-16 03:09 20.74841 -99.77750 34691 ft 469 kts 181°
2026-04-16 03:09 20.71581 -99.77637 34375 ft 469 kts 181°
2026-04-16 03:09 20.68304 -99.77528 34129 ft 470 kts 181°
2026-04-16 03:10 20.65039 -99.77421 33861 ft 470 kts 181°
2026-04-16 03:10 20.61773 -99.77310 33425 ft 468 kts 181°
2026-04-16 03:10 20.58523 -99.77194 32685 ft 465 kts 181°
2026-04-16 03:10 20.55293 -99.77079 31932 ft 462 kts 181°
2026-04-16 03:11 20.52137 -99.76969 31235 ft 458 kts 181°
2026-04-16 03:11 20.48963 -99.76861 30522 ft 456 kts 181°
2026-04-16 03:11 20.45808 -99.76757 29953 ft 446 kts 181°
2026-04-16 03:11 20.42753 -99.76653 29670 ft 431 kts 181°
2026-04-16 03:12 20.40787 -99.76583 29505 ft 420 kts 181°
2026-04-16 03:12 20.37916 -99.76480 29219 ft 406 kts 181°
2026-04-16 03:12 20.34241 -99.76350 28875 ft 389 kts 182°
2026-04-16 03:12 20.31585 -99.76261 28568 ft 377 kts 182°
2026-04-16 03:13 20.29812 -99.76205 28236 ft 374 kts 182°
2026-04-16 03:13 20.27257 -99.76127 27721 ft 370 kts 182°
2026-04-16 03:13 20.24701 -99.76044 27205 ft 366 kts 182°
2026-04-16 03:13 20.22170 -99.75953 26692 ft 362 kts 181°
2026-04-16 03:14 20.19672 -99.75663 26177 ft 361 kts 175°
2026-04-16 03:14 20.17208 -99.75205 25675 ft 358 kts 173°
2026-04-16 03:14 20.14771 -99.74703 25175 ft 354 kts 173°
2026-04-16 03:14 20.12362 -99.74194 24681 ft 351 kts 173°
2026-04-16 03:15 20.09979 -99.73702 24192 ft 347 kts 173°
2026-04-16 03:15 20.07613 -99.73229 23707 ft 343 kts 173°
2026-04-16 03:15 20.05278 -99.72769 23230 ft 340 kts 173°
2026-04-16 03:15 20.02965 -99.72315 22757 ft 337 kts 173°
2026-04-16 03:16 20.00714 -99.71870 22299 ft 333 kts 173°
2026-04-16 03:16 19.98397 -99.71408 21829 ft 330 kts 173°
2026-04-16 03:16 19.96175 -99.70965 21380 ft 327 kts 173°
2026-04-16 03:16 19.93947 -99.70524 20930 ft 324 kts 173°
2026-04-16 03:17 19.91736 -99.70085 20477 ft 321 kts 173°
2026-04-16 03:17 19.89545 -99.69650 20022 ft 319 kts 173°
2026-04-16 03:17 19.87365 -99.69217 19570 ft 317 kts 173°
2026-04-16 03:17 19.85217 -99.68729 19114 ft 317 kts 166°
2026-04-16 03:18 19.83236 -99.67675 18626 ft 322 kts 143°
2026-04-16 03:18 19.81727 -99.65903 18162 ft 325 kts 128°
2026-04-16 03:18 19.80486 -99.63904 17713 ft 323 kts 124°
2026-04-16 03:18 19.79356 -99.61874 17270 ft 322 kts 116°
2026-04-16 03:19 19.78768 -99.59598 16983 ft 321 kts 91°
2026-04-16 03:19 19.79128 -99.57277 16980 ft 320 kts 65°
2026-04-16 03:19 19.80083 -99.55153 16996 ft 316 kts 66°
2026-04-16 03:19 19.80503 -99.53124 16757 ft 313 kts 92°
2026-04-16 03:20 19.80020 -99.50990 16602 ft 297 kts 121°
2026-04-16 03:20 19.78739 -99.49377 16224 ft 286 kts 147°
2026-04-16 03:20 19.77087 -99.48226 15830 ft 282 kts 153°
2026-04-16 03:20 19.75412 -99.47143 15421 ft 281 kts 150°
2026-04-16 03:21 19.73887 -99.45836 15004 ft 283 kts 136°
2026-04-16 03:21 19.72573 -99.44287 14596 ft 282 kts 131°
2026-04-16 03:21 19.71330 -99.42680 14210 ft 280 kts 130°
2026-04-16 03:21 19.70073 -99.41109 13843 ft 277 kts 131°
2026-04-16 03:22 19.68786 -99.39610 13489 ft 274 kts 133°
2026-04-16 03:22 19.67493 -99.38136 13142 ft 270 kts 132°
2026-04-16 03:22 19.66239 -99.36668 12818 ft 266 kts 131°
2026-04-16 03:22 19.65036 -99.35224 12645 ft 255 kts 131°
2026-04-16 03:23 19.63883 -99.33848 12363 ft 251 kts 131°
2026-04-16 03:23 19.62708 -99.32468 12037 ft 247 kts 132°
2026-04-16 03:23 19.61574 -99.31141 11705 ft 245 kts 132°
2026-04-16 03:23 19.60441 -99.29802 11349 ft 243 kts 132°
2026-04-16 03:24 19.59236 -99.28559 10986 ft 242 kts 140°
2026-04-16 03:24 19.57894 -99.27490 10624 ft 240 kts 145°
2026-04-16 03:24 19.56518 -99.26497 10263 ft 239 kts 146°
2026-04-16 03:24 19.55163 -99.25482 10048 ft 238 kts 143°
2026-04-16 03:25 19.53834 -99.24420 10001 ft 239 kts 143°
2026-04-16 03:25 19.52453 -99.23448 9995 ft 239 kts 154°
2026-04-16 03:25 19.50914 -99.22856 10000 ft 239 kts 163°
2026-04-16 03:25 19.49317 -99.22380 9987 ft 237 kts 164°
2026-04-16 03:26 19.47739 -99.21879 9759 ft 236 kts 162°
2026-04-16 03:26 19.46229 -99.21351 9461 ft 231 kts 161°
2026-04-16 03:26 19.44726 -99.20838 9277 ft 211 kts 162°
2026-04-16 03:26 19.43396 -99.20395 9142 ft 191 kts 162°
2026-04-16 03:27 19.42167 -99.19980 8912 ft 178 kts 162°
2026-04-16 03:27 19.40977 -99.19578 8905 ft 183 kts 162°
2026-04-16 03:27 19.39765 -99.19159 8900 ft 183 kts 160°
2026-04-16 03:27 19.38708 -99.18412 8884 ft 184 kts 130°
2026-04-16 03:28 19.38269 -99.17179 8890 ft 184 kts 94°
2026-04-16 03:28 19.38555 -99.15855 8902 ft 184 kts 64°
2026-04-16 03:28 19.39212 -99.14717 8911 ft 183 kts 57°
2026-04-16 03:28 19.39902 -99.13576 8907 ft 183 kts 58°
2026-04-16 03:29 19.40565 -99.12415 8789 ft 188 kts 58°
2026-04-16 03:29 19.41263 -99.11211 8412 ft 191 kts 59°
2026-04-16 03:29 19.41920 -99.10014 7954 ft 186 kts 60°
2026-04-16 03:29 19.42552 -99.08856 7522 ft 178 kts 59°
2026-04-16 03:30 19.43168 -99.07758 7333 ft 165 kts 59°
2026-04-16 03:30 19.43635 -99.06915 7330 ft 89 kts 62°
2026-04-16 03:30 19.43824 -99.06581 7330 ft 40 kts 54°
2026-04-16 03:30 19.43939 -99.06481 7330 ft 17 kts 21°
2026-04-16 03:31 19.44054 -99.06429 7330 ft 19 kts 26°
2026-04-16 03:31 19.44160 -99.06369 7330 ft 11 kts 28°
2026-04-16 03:31 19.44235 -99.06328 7330 ft 7 kts 24°
2026-04-16 03:31 19.44257 -99.06318 7330 ft 9 kts 21°
2026-04-16 03:32 19.44336 -99.06296 7330 ft 13 kts 353°
2026-04-16 03:32 19.44392 -99.06357 7330 ft 13 kts 255°
2026-04-16 03:34 19.44005 -99.07059 7330 ft 16 kts 239°
2026-04-16 03:34 19.43943 -99.07172 7330 ft 19 kts 239°
2026-04-16 03:34 19.43876 -99.07292 7330 ft 20 kts 239°
2026-04-16 03:34 19.43799 -99.07429 7330 ft 23 kts 239°
2026-04-16 03:35 19.43719 -99.07572 7330 ft 22 kts 241°
2026-04-16 03:35 19.43637 -99.07718 7330 ft 23 kts 239°
2026-04-16 03:35 19.43556 -99.07865 7330 ft 23 kts 238°
2026-04-16 03:35 19.43481 -99.08001 7330 ft 13 kts 240°
2026-04-16 03:36 19.43436 -99.08083 7330 ft 13 kts 239°
2026-04-16 03:36 19.43389 -99.08167 7330 ft 8 kts 240°
2026-04-16 03:36 19.43379 -99.08185 7330 ft 0 kts 240°
2026-04-16 03:36 19.43372 -99.08198 7330 ft 5 kts 239°
2026-04-16 03:37 19.43367 -99.08234 7330 ft 5 kts 321°
2026-04-16 03:37 19.43400 -99.08256 7330 ft 6 kts 329°
2026-04-16 03:37 19.43428 -99.08274 7330 ft 0 kts 329°